Regional Weather Roundup
Issued by NWS Northern Indiana

Home | Current Version | Previous Version | Graphics & Text | Print | Product List | Glossary On
Versions: 1 2 3 4 5 6 7 8 9 10 11 12 13 14 15 16 17 18 19 20 21 22 23 24 25 26 27 28 29 30 31 32 33 34 35 36 37 38 39 40 41 42 43 44 45 46 47 48 49 50
000
ASUS43 KIWX 171101
RWRIWX

KIWX WEATHER ROUNDUP
NATIONAL WEATHER SERVICE NORTHERN INDIANA
700 AM EDT THU AUG 17 2017

NOTE: "FAIR" INDICATES FEW OR NO CLOUDS BELOW 12,000 FEET WITH NO
SIGNIFICANT WEATHER AND/OR OBSTRUCTIONS TO VISIBILITY.

* THESE STATIONS ARE NOT UNDER NWS QUALITY CONTROL. THEY ALSO MAY NOT
  REPORT WEATHER SUCH AS PRECIPITATION OR FOG.

INZ001>027-171200-
NORTHERN INDIANA

CITY           SKY/WX    TMP DP  RH WIND       PRES   REMARKS
GARY*          MOCLDY    75  70  83 S6        29.81S
MICHIGAN CITY* PTCLDY    72  70  94 S7G16     29.82F
SOUTH BEND     CLOUDY    74  73  97 S13       29.84
ELKHART*       CLOUDY    73  72  94 S6        29.85
GOSHEN         CLOUDY    74  70  87 S7        29.86
MONTICELLO*    CLOUDY    73  71  95 S5        29.85S
WARSAW*        CLOUDY    72  72 100 CALM      29.87S
FORT WAYNE     CLOUDY    73  70  90 S7        29.89S
PERU/GRISSOM   CLOUDY    73  73 100 S7        29.86S

$$
INZ028>050-171200-
CENTRAL INDIANA

CITY           SKY/WX    TMP DP  RH WIND       PRES   REMARKS
LAFAYETTE      MOCLDY    72  70  93 S5        29.85
KOKOMO*        CLOUDY    73  72  96 S8        29.89S
MUNCIE*        CLOUDY    76  71  85 S5        29.91S
INDIANAPOLIS   MOCLDY    74  72  93 S9        29.89S

$$
MIZ043>046-050>051-056>058-064>065-071>073-077>080-171200-
SOUTHWEST LOWER MICHIGAN

CITY           SKY/WX    TMP DP  RH WIND       PRES   REMARKS
BATTLE CREEK   CLOUDY    70  69  97 S10       29.85
BENTON HARBOR  CLOUDY    74  70  87 S8        29.81
COLDWATER*     LGT RAIN  71  71 100 S5        29.87F
HILLSDALE*     LGT RAIN  68  66  94 SE5       29.88F
HOLLAND        MOCLDY    72  70  93 S9        29.80
GRAND RAPIDS   CLOUDY    68  68 100 SE9       29.82F
KALAMAZOO      CLOUDY    72  68  87 S8        29.84
STURGIS*       CLOUDY    71  70  97 S7        29.86R
THREE RIVERS*  FAIR      74  71  91 S8        29.85S

$$
OHZ001>008-015>018-024>025-171200-
NORTHWEST OHIO

CITY           SKY/WX    TMP DP  RH WIND       PRES   REMARKS
DEFIANCE       CLOUDY    72  70  93 S6        29.89F
FINDLAY        MOCLDY    74  69  85 S9        29.90F
TOLEDO EXPRESS CLOUDY    68  68 100 CALM      29.89S
TOLEDO METCALF CLOUDY    72  70  93 CALM      29.90S
LIMA           LGT RAIN  74  72  93 S7        29.93R

$$
AND FOR LAKE MICHIGAN COASTAL AND OPEN LAKE BUOY OBSERVATIONS

STATION/POSITION TEMP    WIND        PRES    VSBY  WAVE
                 AIR SEA DIR/SP/G                  HT/PER
                 (F)     (DEG/KT/KT) (MB)    (MI)  (FT/S)
CALUMET HARBOR    74     180/  9/ 13 1008.4F
MICHIGAN CITY     73     170/ 13/ 15   N/A
BURNS HARBOR      73     180/ 11/ 16 1009.8S
SAINT JOSEPH      75     200/  4/  8 1009.8
SOUTH LAKE BUOY   74 71  160/ 16/ 16 1007.4          2/ 4
4 MI NW BRIDGMAN  74 74  200/ 14/ 16 1009.0R         2/ 3
MICHIGAN CITY     74 74  190/ 14/ 17   N/A           2/ 3

$$
&&



USA.gov is the U.S. government's official web portal to all federal, state and local government web resources and services.